{"data":{"norad_id":56950,"intl_designator":"2023-084U","name":"BLACKJACK ACES-3","alt_names":[],"object_type":"PAYLOAD","status":"ACTIVE","operator":null,"country":"US","launch_date":"2023-06-12","launch_site_code":"AFWTR","launch_vehicle":null,"mission":null,"orbit_class":"UNKNOWN","rcs_meters":null,"size_class":null,"mass_kg":null,"dimensions":null,"purposes":[],"wikipedia_slug":null,"has_3d_model":false,"image_url":null,"decayed_at":null,"tle_current":{"epoch":"2026-05-24T21:46:23.102112Z","epoch_age_seconds":79763,"freshness":"FRESH","line1":"1 56950U 23084U   26144.90721183  .00004714  00000+0  23315-3 0  9992","line2":"2 56950  97.6178 279.9290 0004061  91.3587 268.8112 15.18315240163634","mean_motion":15.1831524,"eccentricity":0.0004061,"inclination_deg":97.6178,"raan_deg":279.929,"arg_perigee_deg":91.3587,"mean_anomaly_deg":268.8112,"bstar":0.00023315,"rev_number":16363,"period_min":94.84196443948,"perigee_km":508.13444225095,"apogee_km":513.72974416845,"semimajor_km":6889.0690932097,"source":"CELESTRAK","updated_at":"2026-05-25T13:37:59.785418Z"}}}